Weather History for Charlottesville, VA

Change the Weather History Date:

Tuesday, March 19, 2013

  Actual Average Record
Temperature  
Mean Temperature 46 °F 47 °F  
Max Temperature 60 °F 58 °F 87 °F (1945)
Min Temperature 32 °F 36 °F 12 °F (1993)
Degree Days  
Heating Degree Days 19 18  
Month to date heating degree days 441 398  
Since 1 July heating degree days 3498 3810  
Cooling Degree Days 0 0  
Month to date cooling degree days 0 0  
Year to date cooling degree days 0 0  
Moisture  
Dew Point 24 °F    
Average Humidity 57    
Maximum Humidity 100    
Minimum Humidity 13    
Precipitation  
Precipitation 0.31 in 0.13 in 2.48 in (1975)
Month to date precipitation 2.42 2.07  
Year to date precipitation 8.86 7.54  
Sea Level Pressure  
Sea Level Pressure 29.82 in    
Wind  
Wind Speed 7 mph (WSW)    
Max Wind Speed 21 mph    
Max Gust Speed 35 mph    
Visibility 5 miles    
Events Fog    
T = Trace of Precipitation, MM = Missing Value Source: NWS Daily Summary

Daily Weather History Graph

Daily Weather History Graph

Search for Another Location

Airport:

Trip Planner

Search our weather history database for the weather conditions in past years. The results will help you decide how hot, cold, wet, or windy it might be!

Date:

Astronomy

Mar. 19, 2013 Rise Set
Actual Time 7:18 AM EDT 7:25 PM EDT
Civil Twilight 6:52 AM EDT 7:51 PM EDT
Nautical Twilight 6:21 AM EDT 8:22 PM EDT
Astronomical Twilight 5:50 AM EDT 8:53 PM EDT
Moon 12:12 PM EDT (3/19) 2:05 AM EDT (3/19)
Length of Visible Light 12h 59m
Length of Day
12h 06m
Waxing Crescent, 49% of the Moon is Illuminated
Mar 19
Waxing Crescent
Mar 19
First Quarter
Mar 27
Full
Apr 3
Last Quarter
Apr 10
New

Hourly Weather History & Observations

Time (EDT) Temp. Windchill Dew Point Humidity Pressure Visibility Wind Dir Wind Speed Gust Speed Precip Events Conditions
12:39 AM 32.0 °F - 30.2 °F 93% 29.88 in 6.0 mi Calm Calm - N/A   Overcast
12:53 AM 32.0 °F - 30.9 °F 96% 29.88 in 6.0 mi Calm Calm - N/A   Overcast
1:53 AM 32.0 °F 28.7 °F 30.9 °F 96% 29.85 in 3.0 mi SSW 3.5 mph - 0.01 in   Overcast
2:41 AM 33.8 °F - 32.0 °F 93% 29.81 in 1.8 mi Calm Calm - N/A   Overcast
2:53 AM 32.0 °F 28.7 °F 32.0 °F 100% 29.82 in 1.2 mi SSW 3.5 mph - N/A   Overcast
3:16 AM 32.0 °F 28.7 °F 32.0 °F 100% 29.79 in 0.8 mi South 3.5 mph - N/A   Mist
3:53 AM 32.0 °F - 30.9 °F 96% 29.80 in 0.2 mi Calm Calm - N/A Fog Fog
4:53 AM 32.0 °F 28.7 °F 30.9 °F 96% 29.77 in 0.2 mi WNW 3.5 mph - N/A Fog Fog
5:53 AM 32.0 °F 28.7 °F 30.9 °F 96% 29.76 in 0.2 mi South 3.5 mph - N/A Fog Fog
6:53 AM 32.0 °F 28.7 °F 30.9 °F 96% 29.77 in 0.2 mi South 3.5 mph - N/A Fog Fog
7:53 AM 32.0 °F - 30.9 °F 96% 29.80 in 0.1 mi Calm Calm - N/A Fog Fog
8:53 AM 32.0 °F 27.5 °F 30.9 °F 96% 29.81 in 0.1 mi NNE 4.6 mph - N/A Fog Fog
9:53 AM 33.1 °F 27.7 °F 32.0 °F 96% 29.82 in 0.1 mi ESE 5.8 mph - 0.03 in Fog Fog
10:53 AM 36.0 °F - 36.0 °F 100% 29.83 in 0.2 mi Calm Calm - 0.13 in Fog Fog
10:59 AM 37.4 °F - 35.6 °F 93% 29.81 in 0.5 mi Calm Calm - 0.02 in Fog Fog
11:22 AM 39.2 °F - 37.4 °F 93% 29.80 in 10.0 mi Calm Calm - 0.08 in   Scattered Clouds
11:53 AM 48.9 °F - 37.0 °F 64% 29.79 in 10.0 mi SSW 9.2 mph - 0.14 in   Clear
12:53 PM 54.0 °F - 27.0 °F 35% 29.79 in 10.0 mi WNW 11.5 mph 26.5 mph N/A   Clear
1:53 PM 55.9 °F - 25.0 °F 30% 29.77 in 10.0 mi Variable 5.8 mph 21.9 mph N/A   Clear
2:53 PM 59.0 °F - 24.1 °F 26% 29.73 in 10.0 mi WSW 8.1 mph 20.7 mph N/A   Clear
3:53 PM 59.0 °F - 21.0 °F 23% 29.75 in 10.0 mi WSW 11.5 mph 23.0 mph N/A   Clear
4:53 PM 59.0 °F - 17.1 °F 20% 29.76 in 10.0 mi West 11.5 mph 27.6 mph N/A   Clear
5:53 PM 57.0 °F - 8.1 °F 14% 29.79 in 10.0 mi West 11.5 mph 29.9 mph N/A   Clear
6:53 PM 54.0 °F - 5.0 °F 14% 29.82 in 10.0 mi WNW 11.5 mph 26.5 mph N/A   Clear
7:53 PM 52.0 °F - 1.0 °F 12% 29.85 in 10.0 mi West 17.3 mph 34.5 mph N/A   Clear
8:53 PM 50.0 °F - 1.9 °F 14% 29.89 in 10.0 mi WNW 12.7 mph 23.0 mph N/A   Clear
9:53 PM 48.0 °F - 3.9 °F 16% 29.93 in 10.0 mi WNW 10.4 mph 24.2 mph N/A   Clear
11:53 PM 45.0 °F 40.1 °F -0.0 °F 15% 29.96 in 10.0 mi WNW 9.2 mph 19.6 mph N/A   Clear